Wetbulb
55.95 50.83 53.09 52.10 43.46 38.84 35.48 40.03 42.95 45.22 53.23 60.51 59.59 56.85 56.93 59.55 55.45 50.19 68.09 69.25 70.05 70.23 71.27 71.70 71.66 72.41 72.52 72.71 72.82 72.88 72.66 72.75 72.69 72.73 72.71 72.89 72.88 72.86 72.58 72.42 72.32 72.33 72.31 72.34 72.21 72.66 72.34 72.10 71.53
52.64 52.09 50.94 46.43 39.28 32.92 35.19 42.12 48.60 53.37 60.47 62.42 61.82 61.55 59.86 59.04 65.36 65.85 66.48 69.27 69.60 70.21 70.64 70.77 70.86 71.18 70.85 70.34 70.31 70.57 70.88 70.52 70.51 70.53 70.88 71.32 72.03 72.40 72.26 72.00 71.80 71.75 72.05 72.09 72.06 72.04 71.97 71.50 71.29
50.44 52.25 46.07 42.83 37.06 33.94 35.88 43.94 48.25 58.00 62.35 56.76 57.77 60.32 61.00 61.84 65.95 66.47 68.36 68.34 68.16 67.51 68.24 68.47 68.94 69.15 68.96 68.84 68.42 68.17 67.80 67.31 66.97 67.74 68.52 69.05 69.31 70.10 71.06 71.02 71.42 71.58 71.56 71.51 71.74 71.75 71.37 70.38 69.76
47.71 46.74 45.07 39.88 36.27 40.39 42.11 45.67 46.10 55.25 57.49 57.49 59.28 57.51 61.33 65.49 66.40 67.21 67.37 66.48 65.77 65.97 66.03 66.44 66.94 67.32 67.60 67.39 66.77 65.90 64.94 64.51 65.24 64.96 65.06 66.14 67.22 67.96 68.22 69.13 70.29 70.70 71.00 71.19 71.04 70.93 70.96 69.76 69.02
45.32 42.75 38.04 36.36 38.44 42.10 44.90 46.89 47.33 51.16 51.30 57.32 57.08 56.78 60.10 65.80 67.01 66.67 65.30 64.52 63.15 63.01 63.21 64.52 66.32 66.47 65.92 65.08 64.01 63.08 63.37 63.86 64.38 64.79 65.48 65.66 65.07 65.56 67.46 69.04 69.45 69.34 69.06 69.68 70.49 70.50 70.20 69.48 68.99
41.00 41.07 35.86 34.29 38.43 43.02 44.88 46.36 48.16 50.25 54.87 56.93 57.90 58.46 61.26 65.64 64.83 64.50 63.84 62.53 62.25 60.78 60.42 61.45 63.74 63.77 63.70 63.18 63.06 63.86 64.43 62.90 62.89 63.16 63.38 63.74 63.60 64.68 64.90 65.49 65.75 66.13 66.59 67.01 68.06 68.02 68.47 68.82 68.96
38.69 36.87 34.18 35.32 39.02 40.65 44.26 47.44 46.90 50.43 53.81 54.76 58.54 55.95 62.48 64.13 63.73 63.07 62.19 60.06 58.14 57.87 58.10 58.02 57.93 60.23 62.09 62.30 62.63 63.42 63.04 61.91 61.74 61.74 62.02 62.09 62.16 63.22 62.67 63.52 64.24 63.83 64.59 64.26 64.55 64.06 65.21 67.43 67.46
40.98 39.21 34.84 37.28 36.88 39.00 44.96 46.03 46.38 49.56 47.57 58.81 60.54 55.57 57.95 63.17 62.59 60.51 58.34 56.44 56.09 56.96 57.07 56.80 55.90 54.34 54.75 56.53 62.29 62.67 61.99 60.73 60.77 60.64 59.99 59.48 59.47 59.88 61.33 61.53 62.82 62.31 62.00 61.93 61.88 62.10 62.05 62.17 62.52
41.57 37.07 35.35 36.91 37.41 42.65 46.64 43.97 47.87 54.56 54.43 55.44 57.28 59.47 61.17 62.23 60.56 57.58 55.79 54.50 54.13 54.79 53.87 53.00 53.34 53.73 53.26 55.64 60.31 60.88 60.21 58.95 58.13 57.88 58.15 55.08 53.96 54.49 55.54 60.15 60.88 60.44 60.37 60.55 60.61 60.17 60.08 59.47 58.95
42.07 37.28 40.10 41.78 42.22 43.24 45.68 42.91 45.09 48.01 51.20 53.32 56.34 60.10 61.00 59.56 58.15 55.68 54.80 53.04 51.56 51.16 50.89 50.78 51.03 51.06 52.65 54.55 52.38 53.04 54.67 52.69 52.51 52.41 52.02 52.11 51.55 54.05 54.85 56.66 57.88 58.31 58.13 58.27 58.51 58.23 57.39 55.98 54.10
40.99 40.56 42.66 44.88 44.98 43.02 44.10 43.74 44.90 43.76 44.09 53.10 53.89 57.65 58.46 57.93 57.08 55.53 54.52 53.17 51.72 50.95 51.25 50.29 50.08 50.32 50.80 50.95 50.82 50.80 51.68 51.69 51.49 51.25 50.91 50.33 50.79 50.62 51.39 51.68 51.74 51.39 54.78 52.69 53.47 52.93 52.70 52.17 52.44
40.88 44.78 45.16 45.11 45.54 44.40 42.90 43.77 44.13 42.81 44.76 48.92 57.07 58.96 58.09 57.16 56.43 55.95 53.65 51.88 50.04 50.29 50.32 50.11 49.98 49.96 50.05 50.40 50.10 50.11 51.18 50.96 50.38 50.54 50.41 49.12 49.06 48.92 49.27 50.06 49.99 50.09 50.57 50.51 50.66 50.73 50.92 50.61 51.12
42.49 44.08 45.90 46.69 46.34 43.95 45.13 44.10 43.52 43.67 45.36 55.10 58.75 59.28 58.20 57.65 56.84 55.61 54.05 51.53 50.37 49.31 49.74 49.16 49.33 49.03 49.41 49.58 48.86 49.55 50.53 50.55 50.12 50.20 50.01 48.95 48.20 47.92 48.51 48.46 48.74 48.84 49.13 49.02 48.53 48.77 48.48 48.36 49.04
44.44 44.54 44.38 45.31 44.68 45.19 44.47 44.09 42.60 45.43 54.22 56.57 57.46 57.52 57.77 56.85 55.54 54.12 52.14 50.29 49.74 50.02 49.15 48.90 48.92 48.47 48.83 48.70 48.16 48.69 49.84 49.75 49.31 49.08 49.01 49.01 47.87 47.54 47.82 47.30 47.48 47.40 47.62 47.46 47.29 46.79 46.36 46.33 47.13
44.47 41.43 42.91 45.30 44.04 44.48 42.73 42.55 41.18 45.74 54.92 55.17 55.78 56.64 56.74 56.90 55.79 54.79 53.52 49.89 49.63 50.02 49.61 48.49 48.13 48.09 47.91 48.07 47.71 48.32 49.66 49.03 48.27 48.16 48.48 48.31 47.72 46.68 46.58 46.01 45.60 45.81 45.79 45.99 45.94 45.22 45.02 44.90 46.00
41.61 39.78 36.36 42.85 45.11 45.88 45.33 39.02 46.16 48.57 53.00 52.44 54.70 55.58 55.92 56.15 56.44 54.84 52.44 50.11 49.52 49.08 48.81 49.03 50.83 47.65 47.24 47.22 47.01 47.60 47.90 47.63 47.46 47.17 47.38 47.98 48.03 46.94 45.87 44.88 44.29 44.13 44.09 44.07 43.62 43.47 43.11 43.05 43.09
36.35 32.64 35.52 40.13 45.27 44.20 42.36 38.97 44.55 46.22 52.26 51.63 53.24 54.25 55.23 55.24 52.62 50.57 50.48 49.25 48.99 48.54 48.25 47.30 47.23 46.62 46.26 45.95 46.35 46.53 46.99 46.64 47.03 46.64 46.73 47.19 47.39 46.76 45.24 44.25 43.79 43.40 42.72 42.57 42.35 42.06 41.75 41.33 41.23
33.13 33.75 36.76 36.96 40.31 41.47 40.02 39.03 42.07 43.37 46.72 50.39 52.06 52.88 53.96 54.23 50.07 50.53 49.38 49.05 47.64 47.10 47.83 47.09 46.54 45.92 45.79 45.75 45.23 44.98 44.98 44.87 45.78 45.54 45.87 46.24 46.20 45.91 44.40 43.78 43.13 42.88 41.74 41.25 41.24 40.15 40.80 40.74 41.06
38.60 36.44 34.53 38.44 42.40 39.41 40.45 40.61 41.55 44.13 38.96 41.88 47.61 50.28 51.63 51.74 46.85 47.82 47.94 47.10 46.01 46.85 46.35 46.01 45.13 44.89 44.52 43.43 42.45 42.45 42.62 43.45 43.85 45.14 45.57 45.30 45.15 44.88 43.44 42.99 42.24 42.12 40.81 40.04 40.54 39.75 39.69 39.99 41.30
38.87 36.74 35.61 38.55 41.88 40.64 38.51 38.51 39.74 41.25 41.86 40.19 44.47 47.91 49.66 43.36 44.65 45.47 45.56 45.55 46.01 45.56 44.94 43.25 43.30 43.23 42.65 42.52 41.50 41.96 42.23 43.11 43.41 44.12 44.44 44.91 44.32 44.22 43.53 41.98 41.10 40.86 40.02 39.59 39.27 39.17 38.31 38.74 40.57
38.65 36.25 36.81 36.80 40.38 41.30 35.98 37.70 37.32 41.80 41.37 42.21 41.11 46.63 49.01 45.66 43.87 44.41 44.07 44.59 43.61 43.64 42.37 42.46 41.65 41.95 42.32 42.55 42.45 42.69 42.63 42.29 42.01 42.18 43.31 43.44 44.17 43.64 42.61 41.53 40.67 39.97 39.54 38.67 38.22 38.92 38.36 37.32 39.22
34.92 41.84 41.39 40.05 37.41 32.26 38.00 30.76 35.72 38.89 41.10 42.64 42.70 41.42 44.26 45.56 45.37 44.59 44.12 42.41 42.98 41.66 41.13 41.60 42.14 41.78 42.40 42.13 41.85 41.71 41.20 39.36 40.02 40.90 41.98 41.68 42.58 42.28 41.79 40.65 39.97 39.23 38.99 37.68 37.72 39.03 38.88 38.41 37.22
36.89 40.18 37.47 36.64 33.43 31.40 33.77 29.44 32.48 38.16 37.77 39.78 42.18 42.42 41.80 44.62 44.53 43.63 43.60 43.00 41.44 41.79 42.01 42.13 41.76 41.84 41.56 41.25 41.57 41.35 39.83 40.38 39.58 40.25 40.02 39.70 39.70 40.30 40.14 39.20 37.94 37.35 37.52 36.66 36.40 36.58 37.27 39.20 38.24
39.64 36.41 35.66 34.95 32.22 25.96 33.27 30.91 33.78 35.94 38.18 40.42 43.06 44.15 42.39 42.94 44.21 43.51 42.51 40.85 40.25 40.84 40.94 41.81 42.01 40.89 41.02 40.85 39.98 40.25 39.09 38.03 38.15 37.70 37.94 38.17 38.12 38.29 38.41 38.24 37.41 36.70 36.49 36.16 36.19 36.34 36.50 37.08 37.32
34.44 30.75 23.45 23.09 23.40 25.48 34.46 31.71 35.54 37.02 40.12 40.12 40.70 41.34 41.03 43.56 41.97 39.99 39.01 39.05 39.38 39.24 40.09 41.90 41.74 40.86 40.58 40.06 39.74 39.39 38.42 38.12 37.22 36.76 36.42 36.39 36.42 36.62 36.50 36.48 35.89 35.61 35.78 35.91 36.58 36.29 36.74 36.46 34.95
32.47 31.27 25.48 20.26 22.24 26.45 33.49 27.88 33.26 38.66 41.21 41.28 40.96 39.47 40.21 40.30 40.46 39.67 39.51 39.72 40.11 40.41 41.54 41.39 41.34 40.65 41.01 40.46 39.74 39.57 39.66 39.03 38.35 37.33 36.25 35.78 36.00 35.64 35.92 35.43 35.33 35.28 35.65 35.15 34.84 35.79 34.98 32.74 30.20
33.67 28.47 35.31 28.59 29.84 25.45 28.03 30.70 36.43 40.16 39.78 39.77 38.60 37.83 36.81 37.98 38.84 39.58 40.45 40.33 40.51 40.45 40.73 40.95 40.83 40.81 40.45 40.08 39.79 39.29 39.05 38.04 37.01 36.72 36.50 36.56 36.54 36.65 35.40 35.11 34.56 34.71 35.21 34.38 34.41 32.86 29.66 29.44 29.48
37.31 39.82 27.34 26.95 21.65 21.25 25.60 25.48 28.29 34.81 37.26 37.89 35.58 35.11 36.72 37.96 38.80 39.85 40.29 40.05 40.46 40.21 39.74 40.63 40.56 39.57 39.14 38.97 38.72 38.44 37.52 37.43 36.70 36.28 35.51 35.38 35.52 35.52 34.94 34.19 33.69 33.72 34.36 33.36 31.33 30.32 28.73 27.61 27.70
35.58 33.86 34.64 34.15 27.68 21.68 22.23 25.57 38.21 36.18 38.34 38.89 36.57 36.55 36.64 37.53 39.20 39.83 39.16 40.05 39.42 39.97 39.66 39.15 39.38 38.75 38.40 38.32 38.04 37.22 36.59 36.16 35.52 35.02 35.30 35.21 34.87 34.80 34.25 33.78 33.92 34.10 31.96 30.59 28.59 27.71 27.13 26.00 25.87
38.25 35.75 35.47 28.39 25.88 29.62 27.81 29.69 38.20 36.93 37.40 37.89 41.30 41.80 39.94 40.12 39.70 39.31 39.34 38.48 38.78 38.68 39.21 38.76 39.23 38.66 37.98 37.79 37.15 35.99 35.41 34.60 33.81 34.03 34.29 33.94 33.66 34.19 33.31 33.40 32.61 32.28 30.24 28.91 27.06 26.21 26.03 24.38 24.31
MSLP
1009.28 1009.25 1009.43 1009.81 1011.25 1011.89 1011.31 1009.98 1008.60 1007.58 1007.01 1007.03 1006.85 1007.52 1008.70 1009.44 1009.77 1010.89 1010.64 1011.04 1010.84 1011.12 1011.37 1011.51 1011.45 1011.56 1011.65 1011.88 1012.06 1012.17 1012.20 1012.36 1012.45 1012.69 1012.83 1013.03 1013.16 1013.33 1013.18 1013.34 1013.26 1013.23 1013.22 1013.10 1013.10 1013.07 1013.05 1013.08 1013.13
1009.11 1009.17 1009.60 1010.47 1011.65 1012.19 1010.90 1009.18 1008.28 1007.03 1006.79 1007.14 1007.47 1007.99 1008.69 1009.50 1009.75 1010.43 1010.90 1011.35 1011.32 1011.49 1011.66 1011.77 1011.62 1011.70 1011.98 1012.20 1012.43 1012.53 1012.53 1012.65 1012.77 1012.99 1013.06 1013.25 1013.30 1013.41 1013.43 1013.51 1013.52 1013.37 1013.29 1013.21 1013.16 1013.18 1013.19 1013.26 1013.24
1008.93 1009.15 1010.20 1010.95 1011.81 1011.75 1010.41 1008.65 1007.67 1007.68 1006.93 1007.06 1008.05 1008.73 1009.20 1009.67 1010.03 1010.58 1011.03 1011.63 1011.59 1011.88 1011.96 1012.19 1012.12 1012.09 1012.29 1012.40 1012.66 1012.89 1013.02 1013.11 1013.23 1013.41 1013.35 1013.36 1013.56 1013.63 1013.56 1013.59 1013.61 1013.52 1013.47 1013.39 1013.33 1013.29 1013.35 1013.31 1013.24
1009.11 1010.00 1011.16 1011.19 1011.31 1010.51 1009.37 1007.76 1007.50 1007.64 1007.46 1007.51 1008.27 1009.32 1009.72 1009.71 1009.94 1010.57 1011.46 1011.96 1012.37 1012.60 1012.65 1012.50 1012.42 1012.46 1012.48 1012.67 1012.92 1013.07 1013.28 1013.41 1013.45 1013.35 1013.39 1013.42 1013.66 1013.65 1013.56 1013.68 1013.68 1013.60 1013.55 1013.48 1013.45 1013.46 1013.43 1013.40 1013.26
1009.78 1010.88 1011.65 1011.60 1010.83 1009.79 1008.21 1007.00 1006.91 1006.92 1007.38 1008.17 1008.59 1009.92 1010.04 1010.10 1010.22 1010.85 1011.60 1012.05 1012.20 1012.63 1012.77 1012.61 1012.53 1012.57 1012.66 1012.80 1013.03 1013.14 1013.37 1013.47 1013.54 1013.42 1013.50 1013.63 1013.61 1013.59 1013.68 1013.77 1013.74 1013.73 1013.64 1013.56 1013.50 1013.43 1013.43 1013.45 1013.35
1010.58 1011.49 1012.02 1011.56 1010.50 1009.00 1007.66 1006.57 1006.13 1006.14 1007.53 1008.58 1009.26 1009.93 1010.20 1010.40 1010.65 1011.13 1011.34 1012.00 1012.55 1012.82 1012.93 1012.78 1012.81 1012.93 1013.03 1013.12 1013.17 1013.32 1013.54 1013.77 1013.82 1013.84 1013.87 1013.83 1013.78 1013.78 1013.86 1013.91 1013.90 1013.81 1013.70 1013.56 1013.57 1013.52 1013.45 1013.48 1013.43
1010.77 1011.65 1011.58 1010.93 1010.07 1008.88 1007.46 1006.23 1006.09 1006.31 1007.41 1008.33 1009.05 1010.26 1010.56 1010.81 1011.25 1011.71 1012.29 1012.53 1012.68 1012.82 1012.87 1012.88 1012.96 1013.15 1013.25 1013.43 1013.57 1013.74 1013.98 1014.14 1014.22 1014.23 1014.13 1014.03 1014.15 1014.01 1014.01 1014.12 1014.17 1014.02 1013.88 1013.73 1013.68 1013.66 1013.49 1013.40 1013.43
1010.49 1011.19 1011.25 1010.51 1009.76 1008.51 1007.14 1006.62 1006.49 1006.71 1007.62 1008.13 1008.74 1009.46 1010.30 1010.51 1011.39 1011.82 1012.36 1012.51 1012.79 1012.89 1013.02 1013.26 1013.52 1013.67 1013.71 1013.83 1013.85 1014.12 1014.28 1014.38 1014.32 1014.62 1014.42 1014.34 1014.44 1014.43 1014.26 1014.45 1014.37 1014.33 1014.22 1014.00 1013.84 1013.70 1013.65 1013.75 1013.43
1009.97 1011.03 1011.02 1010.12 1009.22 1007.86 1006.73 1006.91 1006.69 1007.08 1007.60 1008.31 1008.67 1008.65 1008.84 1010.13 1011.21 1011.96 1012.62 1013.12 1013.22 1013.20 1013.25 1013.48 1013.82 1014.09 1014.13 1014.15 1014.21 1014.42 1014.61 1014.75 1014.57 1014.93 1014.77 1014.67 1014.81 1014.89 1014.86 1014.69 1014.71 1014.65 1014.73 1014.54 1014.32 1014.10 1013.84 1013.84 1013.85
1009.98 1010.63 1010.04 1009.36 1008.73 1007.92 1007.09 1006.80 1006.62 1007.11 1007.76 1008.20 1008.73 1008.92 1009.26 1010.19 1011.04 1011.69 1012.28 1012.82 1013.34 1013.66 1013.81 1013.87 1014.19 1014.30 1014.34 1014.38 1014.78 1014.95 1015.24 1015.39 1014.91 1015.15 1015.21 1014.98 1015.14 1015.15 1015.27 1015.05 1015.03 1014.92 1014.88 1014.88 1014.83 1014.62 1014.26 1014.20 1014.14
1009.81 1009.84 1009.30 1008.76 1008.29 1007.88 1007.28 1006.79 1006.34 1006.89 1007.66 1007.53 1008.21 1009.37 1009.75 1010.30 1010.78 1011.30 1012.07 1012.75 1013.28 1013.67 1014.16 1014.39 1014.54 1014.57 1014.54 1014.77 1015.15 1015.49 1015.75 1015.86 1015.52 1015.49 1015.58 1015.36 1015.48 1015.60 1015.57 1015.54 1015.54 1015.58 1015.47 1015.35 1015.13 1015.05 1015.01 1014.77 1014.55
1009.83 1009.04 1009.00 1008.44 1008.00 1008.05 1007.58 1006.99 1006.57 1006.32 1006.25 1006.38 1007.08 1008.09 1009.26 1010.10 1010.28 1010.75 1011.83 1012.66 1013.39 1013.69 1014.05 1014.34 1014.42 1014.62 1014.81 1014.95 1015.18 1015.51 1016.04 1016.18 1016.05 1015.98 1016.07 1015.97 1016.07 1016.09 1016.07 1016.13 1016.14 1016.18 1016.16 1015.96 1015.82 1015.63 1015.54 1015.30 1014.92
1009.63 1009.06 1008.68 1008.35 1008.13 1007.86 1007.50 1007.14 1007.00 1006.67 1006.18 1006.43 1007.37 1008.41 1009.01 1009.81 1010.60 1011.05 1011.51 1012.27 1013.10 1013.70 1014.09 1014.70 1014.85 1014.73 1014.75 1014.93 1015.30 1015.64 1015.99 1016.22 1016.39 1016.35 1016.42 1016.38 1016.55 1016.72 1016.45 1016.52 1016.68 1016.79 1016.61 1016.43 1016.29 1016.14 1015.91 1015.78 1015.41
1009.55 1009.23 1008.71 1007.93 1007.88 1007.68 1007.34 1006.85 1006.84 1006.33 1006.90 1007.27 1007.59 1008.20 1008.57 1009.03 1009.67 1010.70 1011.25 1012.11 1012.84 1013.35 1013.84 1013.65 1014.65 1014.99 1015.03 1015.16 1015.20 1015.68 1016.07 1016.43 1016.62 1016.61 1016.62 1016.61 1016.77 1016.99 1016.79 1016.90 1017.12 1017.24 1017.32 1016.94 1016.70 1016.56 1016.33 1016.10 1015.78
1009.87 1009.87 1009.04 1007.71 1007.46 1007.23 1007.00 1006.78 1006.54 1006.22 1006.95 1007.47 1007.90 1008.13 1008.82 1009.08 1009.72 1009.73 1010.24 1011.32 1012.06 1012.84 1013.34 1013.69 1013.83 1014.54 1015.38 1015.81 1015.75 1015.90 1016.14 1016.42 1016.81 1017.00 1016.98 1016.96 1017.02 1017.28 1017.15 1017.22 1017.39 1017.61 1017.50 1017.42 1017.04 1016.84 1016.53 1016.40 1015.83
1010.42 1010.37 1009.83 1007.90 1007.46 1006.92 1007.08 1006.69 1005.75 1005.44 1006.48 1007.07 1007.41 1007.88 1008.23 1008.73 1008.71 1009.91 1010.54 1011.47 1012.23 1013.00 1013.53 1013.62 1013.72 1014.07 1014.57 1015.46 1015.93 1016.13 1016.45 1016.81 1017.14 1017.16 1017.18 1017.16 1017.31 1017.62 1017.57 1017.74 1017.86 1017.88 1017.55 1017.52 1017.43 1017.19 1016.96 1016.71 1016.30
1011.16 1010.96 1010.27 1008.68 1007.73 1007.46 1007.24 1006.75 1005.77 1005.49 1006.21 1006.55 1006.89 1007.35 1007.85 1008.56 1009.13 1009.48 1009.96 1010.78 1011.89 1012.82 1013.44 1013.62 1013.91 1014.27 1014.88 1015.40 1015.57 1016.13 1016.51 1016.83 1017.10 1017.30 1017.45 1017.55 1017.58 1017.89 1018.04 1018.25 1018.30 1018.07 1017.91 1017.88 1017.72 1017.50 1017.46 1017.18 1016.61
1011.40 1011.27 1010.39 1009.64 1008.48 1008.13 1007.70 1007.12 1006.31 1005.51 1006.01 1006.05 1006.33 1006.82 1007.41 1007.95 1008.07 1008.72 1009.87 1010.77 1011.52 1012.35 1012.97 1013.32 1013.76 1014.23 1014.76 1015.35 1016.03 1016.57 1017.06 1017.34 1017.33 1017.37 1017.42 1017.54 1017.85 1018.17 1018.21 1018.41 1018.50 1018.46 1018.37 1018.23 1017.92 1017.81 1017.73 1017.69 1017.14
1011.02 1010.93 1010.63 1009.87 1009.02 1009.02 1007.97 1006.91 1006.35 1005.44 1005.59 1005.77 1006.15 1006.59 1006.97 1007.24 1008.05 1008.92 1010.00 1010.87 1011.92 1012.59 1012.92 1013.16 1013.74 1014.37 1014.71 1015.42 1016.25 1016.94 1017.33 1017.57 1017.78 1017.72 1017.93 1018.11 1018.38 1018.64 1018.71 1018.54 1018.35 1018.51 1018.68 1018.77 1018.48 1018.30 1018.18 1017.89 1017.35
1010.73 1010.64 1010.26 1009.77 1009.26 1008.78 1008.03 1006.33 1005.95 1005.43 1005.13 1004.70 1005.18 1005.80 1006.34 1007.49 1008.15 1008.98 1009.92 1010.90 1011.60 1012.45 1013.01 1013.41 1013.76 1014.22 1014.58 1015.09 1015.88 1016.42 1017.17 1017.75 1017.94 1018.18 1018.37 1018.44 1018.73 1019.00 1019.09 1019.23 1019.15 1018.79 1018.87 1018.89 1018.92 1018.82 1018.86 1018.66 1018.12
1010.17 1010.25 1010.11 1009.77 1009.38 1008.24 1008.18 1005.31 1005.62 1004.87 1004.56 1004.10 1004.36 1004.56 1005.54 1006.22 1007.32 1008.72 1009.65 1010.40 1011.39 1012.29 1012.96 1013.34 1013.71 1014.06 1014.49 1014.82 1015.57 1016.56 1017.23 1017.89 1018.28 1018.61 1018.95 1019.21 1019.15 1019.39 1019.48 1019.69 1019.76 1019.56 1019.52 1019.38 1019.48 1019.31 1019.10 1019.16 1018.86
1008.74 1009.40 1009.56 1009.66 1009.80 1008.82 1008.18 1005.16 1005.22 1004.62 1004.16 1003.89 1004.03 1004.61 1004.97 1005.97 1007.16 1008.19 1009.16 1010.25 1011.13 1012.23 1013.00 1013.60 1013.84 1014.15 1014.71 1015.14 1015.75 1016.40 1017.13 1017.98 1018.55 1018.75 1019.34 1019.68 1019.69 1019.65 1019.82 1020.08 1020.34 1020.35 1020.00 1020.01 1019.82 1019.82 1019.61 1019.37 1019.35
1007.75 1008.96 1009.46 1009.42 1009.30 1009.00 1007.36 1007.71 1004.30 1004.35 1004.08 1004.08 1003.90 1004.01 1004.56 1005.32 1006.24 1007.40 1008.70 1010.04 1011.19 1012.22 1013.13 1013.59 1014.09 1014.51 1014.86 1015.30 1015.96 1016.82 1017.82 1018.61 1019.07 1019.42 1019.72 1020.15 1020.38 1020.27 1020.23 1020.40 1020.63 1020.82 1020.70 1020.40 1020.35 1020.32 1020.16 1020.07 1020.14
1009.01 1009.11 1009.13 1009.20 1009.22 1008.82 1006.65 1007.42 1003.60 1004.60 1004.18 1003.86 1003.83 1003.78 1004.20 1005.05 1006.11 1007.71 1009.21 1010.52 1011.63 1012.65 1013.42 1013.95 1014.40 1015.14 1015.55 1016.04 1016.74 1017.36 1017.93 1018.78 1019.23 1019.77 1020.07 1020.56 1020.63 1020.74 1020.87 1020.85 1020.69 1020.70 1020.78 1020.70 1020.67 1020.67 1020.65 1020.81 1020.70
1009.30 1009.93 1010.18 1009.52 1009.15 1007.33 1006.89 1006.73 1004.40 1004.21 1004.24 1004.50 1004.77 1004.55 1004.78 1005.13 1006.40 1007.76 1009.16 1010.53 1012.07 1013.08 1013.89 1014.39 1014.78 1015.51 1016.00 1016.54 1017.44 1018.06 1018.30 1018.97 1019.49 1019.99 1020.41 1020.73 1020.93 1021.14 1021.09 1021.08 1021.03 1021.05 1021.17 1021.02 1020.78 1020.93 1021.16 1021.43 1021.52
1008.73 1009.66 1009.82 1009.05 1008.68 1007.93 1007.07 1005.80 1004.99 1004.97 1005.38 1005.65 1006.19 1006.38 1006.26 1006.68 1007.72 1008.56 1009.57 1010.52 1012.12 1013.20 1013.77 1014.44 1015.00 1015.80 1016.21 1016.82 1017.60 1018.49 1018.71 1019.30 1019.93 1020.40 1020.73 1020.90 1021.19 1021.31 1021.40 1021.47 1021.31 1021.30 1021.37 1021.45 1021.32 1021.43 1021.77 1022.13 1022.22
1008.47 1008.91 1008.37 1009.19 1008.99 1008.87 1008.06 1007.01 1005.86 1006.49 1007.02 1007.56 1007.86 1008.12 1008.15 1008.61 1009.38 1010.15 1010.66 1011.31 1012.28 1013.14 1014.12 1014.65 1015.30 1016.12 1016.75 1017.44 1018.00 1018.88 1019.26 1019.63 1020.32 1020.88 1021.17 1021.41 1021.34 1021.24 1021.50 1021.55 1021.63 1021.71 1021.86 1021.95 1021.84 1022.19 1022.55 1022.59 1022.39
1008.74 1009.12 1009.16 1009.74 1009.83 1009.14 1008.63 1008.84 1008.95 1009.00 1008.99 1009.22 1009.88 1010.10 1010.18 1010.65 1010.64 1010.74 1011.13 1011.91 1012.88 1013.52 1014.18 1014.91 1015.64 1015.74 1017.28 1018.01 1018.45 1019.13 1019.56 1019.96 1020.66 1021.27 1021.49 1021.76 1021.55 1021.59 1021.79 1021.93 1022.02 1022.21 1022.62 1022.68 1022.65 1022.68 1022.73 1022.92 1022.79
1009.35 1009.72 1011.02 1011.28 1010.41 1010.10 1009.80 1009.98 1010.75 1011.07 1010.90 1011.03 1011.31 1011.48 1011.67 1011.45 1011.59 1011.70 1011.69 1012.25 1013.10 1013.88 1014.64 1015.20 1015.25 1016.50 1017.64 1018.08 1018.62 1019.23 1019.93 1020.33 1020.76 1021.18 1021.70 1022.11 1021.96 1022.07 1022.12 1022.37 1022.39 1022.85 1023.23 1023.22 1023.14 1023.06 1023.10 1023.10 1022.96
1009.79 1010.72 1011.32 1012.17 1011.70 1011.37 1010.70 1010.87 1011.42 1011.54 1011.75 1012.13 1012.51 1012.06 1012.54 1012.82 1012.87 1012.86 1012.78 1012.87 1013.69 1014.01 1014.51 1014.98 1015.94 1016.66 1017.47 1018.17 1018.85 1019.55 1020.11 1020.62 1020.87 1021.45 1022.03 1022.09 1022.33 1022.48 1022.59 1022.62 1022.86 1023.28 1023.49 1023.56 1023.57 1023.62 1023.57 1023.26 1023.12
Wind_Speed
5 4 2 4 4 6 4 6 3 8 2 2 6 8 7 3 3 4 4 5 11 9 5 7 11 11 12 12 12 12 13 12 12 11 10 9 9 7 8 7 7 7 7 7 7 7 6 5 4
2 2 4 3 6 3 6 5 6 5 6 13 9 5 4 2 4 9 8 8 10 8 6 8 12 13 14 13 13 13 14 13 12 11 12 11 10 8 8 8 7 6 6 6 5 5 6 6 4
2 4 4 5 4 5 4 4 9 4 9 3 6 6 3 4 10 5 11 11 10 8 8 8 11 13 13 14 13 13 13 13 12 10 9 8 8 9 9 8 7 7 6 5 5 5 5 4 5
2 5 5 4 4 6 6 10 6 6 6 6 5 7 1 4 5 8 12 11 10 8 8 10 13 13 14 14 13 14 13 13 12 11 10 10 10 10 9 8 9 9 8 8 6 6 5 6 5
5 4 4 1 3 5 7 10 7 11 3 5 5 6 4 3 12 15 12 9 10 7 5 6 11 12 13 13 14 14 13 13 12 14 14 13 13 14 10 9 9 9 9 10 10 8 7 7 7
5 4 4 3 3 7 7 6 3 7 5 6 6 6 4 12 12 10 11 10 7 8 5 6 10 11 11 12 13 12 13 12 13 13 13 14 16 15 15 14 13 12 10 9 10 10 9 8 8
5 4 4 3 4 6 5 11 4 6 8 4 11 6 4 13 7 9 8 8 8 6 6 6 6 8 9 10 11 12 13 12 13 13 13 15 15 14 15 15 15 15 15 15 15 15 14 9 8
6 5 2 3 3 7 4 9 3 4 3 6 8 8 9 14 11 10 8 8 7 6 6 5 4 4 5 5 11 12 12 12 14 13 14 14 14 14 15 14 14 15 14 14 14 14 14 13 14
4 4 3 4 3 5 8 4 4 1 6 1 2 6 6 18 15 10 8 4 4 4 5 5 5 4 5 6 8 11 13 12 13 11 14 10 5 6 9 15 15 17 15 16 15 15 14 12 11
4 3 6 4 4 7 7 5 5 3 2 1 2 5 18 18 16 14 12 10 5 5 4 5 5 5 5 5 6 6 6 4 5 6 6 5 6 7 8 12 16 15 16 16 16 16 15 12 5
3 5 3 5 5 3 6 8 4 8 3 7 8 15 18 17 15 15 12 11 8 6 3 4 5 5 7 5 4 3 3 3 4 7 5 6 5 4 4 4 5 5 12 6 8 8 6 7 5
5 6 5 5 3 5 5 6 7 4 7 6 12 22 21 19 19 17 14 11 9 7 7 6 6 7 6 4 4 5 4 3 3 5 6 5 4 5 4 5 5 5 4 6 5 4 6 7 7
6 5 4 5 9 6 6 9 6 9 8 6 16 19 20 17 13 9 11 10 10 8 7 6 5 6 6 6 4 4 4 4 4 5 5 4 5 5 4 5 5 5 4 5 5 4 5 6 7
4 6 10 8 5 6 6 6 5 8 5 10 17 20 18 19 18 10 13 13 12 11 9 10 7 5 5 5 6 5 5 5 4 4 4 6 5 4 6 5 5 5 5 4 4 5 5 5 5
3 8 9 12 3 6 4 9 8 9 8 12 14 16 15 16 15 19 17 16 15 12 11 9 10 9 7 5 5 5 4 5 4 4 6 6 6 5 6 5 5 4 4 5 5 6 4 5 5
5 2 5 1 4 5 8 9 15 9 12 12 14 15 17 18 21 10 11 13 12 11 10 8 9 9 10 8 5 4 5 4 4 4 4 6 7 6 6 5 5 4 4 4 3 6 6 6 7
3 5 7 13 7 6 5 6 10 2 11 11 13 14 16 14 10 10 15 15 14 12 10 9 8 9 8 6 6 6 7 5 4 4 4 6 7 6 6 4 4 4 4 5 4 5 5 6 8
5 5 5 7 3 5 11 12 11 12 10 15 14 13 14 16 18 15 14 14 13 11 11 10 7 9 8 6 6 5 5 4 3 4 4 7 5 6 5 5 5 4 5 6 6 5 5 5 8
6 8 9 11 17 6 14 17 16 16 4 8 9 9 13 17 8 10 12 13 12 11 11 11 11 8 7 4 5 4 4 3 3 4 6 7 6 6 5 4 5 5 7 6 7 5 8 7 11
13 15 14 11 15 8 12 17 12 9 8 9 14 14 15 8 12 12 13 13 14 13 9 8 8 8 6 5 3 4 4 3 4 4 6 7 7 6 7 6 6 6 5 7 7 7 6 4 9
12 14 11 15 13 18 5 24 7 7 5 5 7 12 11 18 19 16 17 17 12 12 10 10 9 9 7 8 7 6 5 4 4 4 6 5 8 8 8 8 6 6 5 6 5 6 8 6 7
20 10 14 17 11 11 7 22 4 5 9 6 8 8 10 13 13 14 18 16 15 10 8 9 8 9 7 7 8 9 6 6 2 4 5 7 7 8 8 7 6 6 5 6 6 6 6 6 7
20 6 6 7 8 4 11 6 1 4 6 8 8 8 10 15 19 21 19 15 12 12 11 10 10 9 8 9 9 9 9 6 4 6 9 8 7 7 7 6 5 5 5 5 6 6 8 6 6
3 4 6 5 4 9 11 8 23 10 9 6 8 10 8 13 16 15 13 14 13 10 10 11 13 9 9 10 8 12 13 8 7 6 7 5 4 4 6 6 5 6 6 7 6 6 7 8 7
6 3 5 5 5 15 8 8 16 3 5 4 9 10 9 11 15 17 19 17 15 12 11 11 13 12 10 11 10 9 10 9 9 6 5 5 4 4 5 4 5 5 5 6 6 7 8 9 8
6 10 12 8 8 12 5 8 7 3 5 6 7 6 9 10 12 16 17 18 16 14 13 13 14 12 11 12 11 8 9 7 7 6 5 4 5 4 4 5 5 6 6 5 5 5 7 8 6
4 5 16 15 14 4 6 7 6 9 11 9 8 9 9 9 12 14 16 16 15 13 13 13 13 13 12 11 10 9 9 10 8 6 5 4 4 5 5 6 6 6 6 6 6 7 7 6 5
2 2 3 1 8 14 5 3 2 14 13 8 9 8 8 6 10 13 14 13 11 13 12 13 13 15 12 11 9 9 10 9 7 5 6 5 5 6 7 6 5 5 7 8 8 5 7 7 6
3 1 2 6 3 7 12 4 6 12 16 16 8 8 6 5 8 9 10 11 12 12 12 13 14 15 11 10 10 11 9 8 7 6 5 4 6 6 6 5 5 9 8 8 8 7 8 8 8
3 4 3 2 4 3 1 4 7 11 9 12 15 15 14 8 6 3 7 11 13 14 14 14 12 12 11 11 11 11 9 8 7 6 6 6 7 5 5 7 7 9 9 8 8 8 8 9 9
Wind_Direction
310 308 147 42 55 65 271 268 261 282 356 12 105 142 146 53 161 198 91 100 106 107 105 106 101 95 87 85 85 83 83 78 71 68 63 58 55 58 67 60 58 51 48 52 40 29 54 47 44
324 157 45 85 89 71 272 268 303 243 132 108 68 87 78 101 80 114 112 111 106 107 101 103 95 91 92 93 88 80 74 73 65 63 55 45 41 44 47 43 33 33 32 32 36 37 33 23 17
165 53 83 95 107 172 228 259 40 3 150 98 102 39 43 107 114 111 112 119 115 116 109 105 95 98 100 91 88 86 82 76 72 68 65 60 48 36 34 31 24 18 11 6 2 18 19 16 10
72 14 33 88 224 246 225 257 186 185 305 32 94 93 54 333 131 125 124 117 120 106 117 114 111 105 99 97 94 90 86 80 66 65 58 57 52 41 37 30 26 22 9 355 355 351 346 344 345
37 56 54 342 260 260 258 253 190 196 174 131 111 164 138 37 107 125 130 126 125 122 113 105 103 103 103 102 99 92 86 75 70 67 64 66 63 49 48 47 36 24 15 7 0 350 339 326 324
36 94 56 261 270 267 277 271 245 161 110 118 97 150 141 130 134 147 134 130 135 129 116 101 104 105 106 103 97 89 84 73 71 66 67 66 63 61 59 52 42 33 23 17 9 354 340 331 325
113 84 220 228 260 304 279 334 12 121 133 173 134 126 133 154 145 120 117 121 121 121 116 101 96 113 103 97 95 90 83 78 74 71 71 68 63 62 58 50 47 50 54 52 48 35 20 360 349
111 96 258 230 239 271 269 342 3 85 107 97 151 164 175 169 141 125 132 118 116 119 114 116 102 100 106 100 105 102 89 77 77 73 72 64 58 54 54 46 55 55 48 47 48 43 34 20 18
125 65 252 261 228 253 309 48 359 13 108 106 246 161 161 141 137 126 116 89 109 123 134 134 147 141 126 110 100 95 90 81 77 65 62 55 48 39 40 52 47 44 34 35 34 35 35 28 15
107 142 232 211 246 270 286 278 156 130 102 195 37 78 131 143 150 148 161 163 157 152 145 148 147 139 111 94 95 91 84 60 73 71 56 63 51 55 56 49 41 38 37 33 31 32 32 25 16
162 199 214 269 247 257 278 308 191 133 225 216 189 153 155 159 163 166 170 163 167 157 141 147 132 129 118 115 103 80 74 60 59 64 57 60 59 41 42 39 29 21 28 26 29 22 19 15 10
328 231 221 256 298 317 291 298 291 193 224 196 171 168 159 173 178 176 165 160 155 157 156 157 148 132 119 109 102 109 101 79 63 64 55 54 52 46 45 45 30 31 14 25 20 20 7 4 358
202 267 235 254 281 250 279 252 252 281 265 101 142 162 174 179 177 166 159 158 161 155 155 157 142 135 134 117 113 108 114 92 85 71 58 60 55 54 53 46 38 28 14 23 17 12 10 359 350
312 306 294 284 231 249 235 262 153 268 126 133 156 176 181 182 175 155 166 170 167 163 166 153 148 127 126 124 123 115 112 101 77 74 78 66 71 66 60 52 41 30 11 9 22 11 3 354 339
280 304 315 278 249 241 166 290 218 243 169 167 182 179 186 187 178 190 181 172 165 170 162 153 137 130 118 110 107 112 119 105 97 84 68 70 71 67 69 63 52 28 16 8 20 9 359 352 344
330 320 319 347 331 274 148 272 278 229 168 193 188 184 188 194 196 183 173 166 164 157 161 154 141 138 137 134 121 115 119 102 103 95 89 82 74 67 63 61 48 30 30 28 21 16 6 0 347
342 248 240 303 213 244 184 267 276 274 191 206 196 192 194 188 190 178 173 165 158 158 156 144 144 137 127 120 119 123 124 112 118 100 82 76 76 74 74 59 44 36 40 30 25 23 12 2 344
206 230 244 244 304 14 305 266 277 287 204 212 203 200 191 191 200 179 166 159 153 153 157 151 139 136 135 125 111 93 88 83 92 100 98 95 84 78 80 65 49 30 36 30 28 26 5 4 340
243 242 252 269 284 304 280 282 277 276 237 205 218 205 199 203 167 155 155 150 142 156 154 151 143 155 134 130 125 112 120 123 87 87 83 80 76 67 63 70 65 48 46 24 24 10 9 9 352
239 260 268 273 268 264 274 274 255 262 253 193 200 206 208 149 161 158 158 157 162 157 156 138 142 144 136 121 118 118 127 89 99 80 65 78 74 62 65 52 46 50 53 35 26 24 16 359 7
238 235 255 261 283 284 281 281 272 256 241 241 209 212 205 184 173 168 167 168 155 158 152 145 139 134 132 123 112 101 98 85 78 60 78 55 69 66 61 54 49 44 41 41 23 22 27 17 17
259 219 246 256 264 266 180 280 266 230 252 244 240 206 204 193 187 171 166 166 160 147 127 126 122 116 115 120 116 127 121 116 94 101 93 69 66 71 65 57 43 39 46 45 33 25 24 14 16
267 222 246 244 245 248 237 255 31 193 251 264 264 254 204 189 180 180 175 156 137 134 134 125 111 100 100 98 109 109 98 100 94 91 92 82 62 61 63 61 62 51 42 43 36 23 27 33 26
294 302 310 251 163 233 247 189 271 241 228 232 249 267 212 187 180 158 142 134 127 124 122 121 114 103 95 96 97 113 118 118 106 98 95 87 75 65 52 57 61 56 49 40 31 28 28 28 24
258 71 304 271 197 251 180 205 238 239 245 238 265 301 325 186 155 145 143 137 133 126 125 121 115 111 106 102 98 105 106 104 103 99 98 95 78 61 53 58 55 54 47 39 36 33 33 34 26
239 191 219 243 233 258 244 233 245 95 70 44 50 43 53 90 129 138 135 130 129 131 130 126 124 115 108 105 102 97 97 98 95 97 96 97 99 90 74 61 59 60 50 39 35 44 39 30 9
281 204 231 240 257 250 254 300 303 37 31 31 43 52 67 95 117 126 121 126 136 134 131 128 121 113 103 104 102 99 102 101 99 95 94 87 90 92 67 65 60 44 51 37 42 64 34 13 359
342 0 317 355 217 241 224 250 345 359 358 22 22 47 58 79 124 136 131 134 134 132 124 119 125 112 117 114 112 110 107 102 105 106 96 96 84 82 78 63 62 55 63 57 47 49 25 5 355
2 30 12 300 158 238 247 189 78 39 29 25 37 45 41 109 144 146 137 124 122 121 128 125 118 126 128 121 114 111 110 108 106 96 86 88 80 78 77 67 56 82 70 60 46 24 21 4 355
85 106 109 191 337 327 352 134 79 28 14 5 19 37 31 22 14 74 124 121 135 137 138 132 130 129 126 121 119 118 113 103 96 92 104 96 93 87 83 75 70 84 64 54 39 24 11 2 356